Terminal Aerodrome Forecast
Issued by NWS

Home | Current Version | Previous Version | Text Only | Print | Product List | Glossary On
Versions: 1 2 3 4 5 6 7 8 9 10 11 12 13
000
FTUS45 KRIW 161700
TAFJAC
TAF
KJAC 161721Z 1618/1718 VRB05KT P6SM SCT060 SCT200
     FM162000 20007KT P6SM VCSH BKN060 BKN150
     FM170400 VRB05KT P6SM SCT050 BKN150
      AMD LTD TO CLD VIS AND WIND=

USA.gov is the U.S. government's official web portal to all federal, state and local government web resources and services.